Regional Weather Roundup
Issued by NWS Bismarck, ND

Home | Current Version | Previous Version | Text Only | Print | Product List | Glossary On
Versions: 1 2 3 4 5 6 7 8 9 10 11 12 13 14 15 16 17 18 19 20 21 22 23 24 25 26 27 28 29 30 31 32 33 34 35 36 37 38 39 40 41 42 43 44 45 46 47 48 49 50
000
ASUS43 KBIS 301959
RWRBIS

NWR BROADCAST TEXT
NATIONAL WEATHER SERVICE BISMARCK ND
300 PM CDT TUE SEP 30 2014

NOTE: "FAIR" INDICATES FEW OR NO CLOUDS BELOW 12,000 FEET WITH NO
SIGNIFICANT WEATHER AND/OR OBSTRUCTIONS TO VISIBILITY.


CITY           SKY/WX    TMP DP  RH WIND       PRES   REMARKS
WILLISTON      CLOUDY    55  52  89 E9        29.57F
MINOT          LGT RAIN  50  47  89 E12       29.61F
MINOT AFB      DRIZZLE   49  49 100 E15       29.61F
BISMARCK       CLOUDY    54  53  97 E18       29.55F FOG
DICKINSON      NOT AVBL
GARRISON         N/A     51  50  96 E13       29.58F
HETTINGER ARPT CLOUDY    53  51  93 NE15      29.47F FOG
JAMESTOWN      CLOUDY    51  47  86 E15G30    29.65F
CARRINGTON     CLOUDY    50  50 100 E17G25    29.66F
CROSBY         RAIN      50  50 100 E7        29.60F
HARVEY         CLOUDY    48  48 100 E18G24    29.63F
HAZEN          CLOUDY    50  50 100 E9        29.56F
LINTON         CLOUDY    57  57 100 E20G30    29.49F
MANDAN         CLOUDY    54  52  94 E15G25    29.54F FOG
OAKES            N/A     50  50 100 E24G31    29.65F
RUGBY          MOCLDY    50  50 100 E17       29.65F
WATFORD CITY   CLOUDY    54  54 100 E15       29.55F FOG
$$

CITY           SKY/WX    TMP DP  RH WIND       PRES   REMARKS
GRAND FORKS    CLOUDY    61  45  55 SE18G24   29.76F
GRAND FORKS AF CLOUDY    60  47  61 SE16      29.75F
DEVILS LAKE    PTSUNNY   54  43  66 SE16G23   29.68F
FARGO          PTSUNNY   61  44  53 SE16G35   29.74F
CAVALIER       FAIR      57  46  67 SE12G20   29.77F
GRAFTON        MOCLDY    57  48  72 SE16      29.77F
GWINNER        CLOUDY    52  48  87 SE25G32   29.71F
LANGDON        CLOUDY    54  46  76 SE18G24   29.74F
ROLLA          CLOUDY    48  48 100 SE12G21   29.71F
$$

CITY           SKY/WX    TMP DP  RH WIND       PRES   REMARKS
ABERDEEN       CLOUDY    65  58  78 SE24G31   29.58F
MOBRIDGE       CLOUDY    68  54  60 SE26G40   29.39F
BUFFALO          N/A     53  51  93 NW12      29.44F
RAPID CITY     PTSUNNY   62  48  60 NW25G33   29.52R
GLASGOW        PTSUNNY   63  50  62 W3        29.56F
SIDNEY         CLOUDY    55  54  94 E6        29.57F
WOLF POINT     CLOUDY    60  52  74 CALM      29.58F
GLENDIVE       CLOUDY    57  54  88 NW12      29.56F
MILES CITY     CLOUDY    61  49  64 NW9       29.58F
BAKER          LGT RAIN  55  54  96 NW14      29.53F FOG
$$

CITY           SKY/WX    TMP DP  RH WIND       PRES   REMARKS
BILLINGS       CLOUDY    61  43  51 NW8       29.69F
GREAT FALLS    CLOUDY    60  41  49 SW16      29.70F
$$



USA.gov is the U.S. government's official web portal to all federal, state and local government web resources and services.